This demonstration page uses our WeatherBlox Daily Observations layout. Learn more.

Left ArrowRight Arrow

38.20091, -84.87328

Hourly Observations for September 19, 2021

Temp ( °F °C ) Dew Point ( °F °C ) Humidity (%) Winds ( mph kmh ) Pressure ( in mb ) Visibility ( mi km ) Precip ( " mm )
12:53 am 00:53 Clear 70 21.1 69 20.6 97 97 Calm 30.10 1019 10 16 0.00 0.00
1:45 am 01:45 Partly Cloudy with Mist and Fog 70 21.1 69 20.6 97 97 Calm 30.10 1019 6 10 0.00 0.00
1:53 am 01:53 Mostly Cloudy with Mist and Fog 70 21.1 69 20.6 97 97 Calm 30.09 1019 4 6 0.00 0.00
2:02 am 02:02 Partly Cloudy with Mist and Fog 70 21.1 69 20.6 97 97 Calm 30.10 1019 3 4 0.00 0.00
2:11 am 02:11 Partly Cloudy with Mist and Fog 70 21.1 69 20.6 97 97 Calm 30.10 1019 1 2 0.00 0.00
2:26 am 02:26 Clear with Mist and Fog 69 20.6 67 19.4 93 93 Calm 30.10 1019 3 5 0.00 0.00
2:35 am 02:35 Partly Cloudy 69 20.6 67 19.4 93 93 Calm 30.10 1019 10 16 0.00 0.00
2:48 am 02:48 Partly Cloudy with Mist and Fog 68 20 66 19 94 94 Calm 30.10 1019 2 3 0.00 0.00
2:53 am 02:53 Mostly Cloudy with Fog 68 20 67 19.4 96 96 Calm 30.09 1019 1 1 0.00 0.00
3:01 am 03:01 Mostly Clear with Mist and Fog 69 20.6 67 19.4 93 93 Calm 30.09 1019 2 2 0.00 0.00
3:03 am 03:03 Mostly Clear with Mist and Fog 69 20.6 67 19.4 93 93 Calm 30.10 1019 5 8 0.00 0.00
3:48 am 03:48 Mostly Cloudy with Mist and Fog 68 20 66 19 94 94 Calm 30.10 1019 3 4 0.00 0.00
3:53 am 03:53 Mostly Cloudy with Mist and Fog 68 20 67 19.4 96 96 Calm 30.09 1019 1 1 0.00 0.00
4:19 am 04:19 Mostly Cloudy with Fog 65 18.3 65 18.3 100 100 Calm 30.11 1019 0 0 0.00 0.00
4:31 am 04:31 Mostly Cloudy with Mist and Fog 67 19.4 67 19.4 100 100 Calm 30.09 1019 1 2 0.00 0.00
4:46 am 04:46 Mostly Cloudy with Mist and Fog 67 19.4 66 18.9 97 97 Calm 30.09 1019 1 1 0.00 0.00
4:53 am 04:53 Mostly Cloudy with Mist and Fog 67 19.4 66 18.9 97 97 Calm 30.09 1019 1 1 0.00 0.00
4:57 am 04:57 Mostly Cloudy with Mist and Fog 67 19.4 66 18.9 97 97 Calm 30.09 1019 1 2 0.00 0.00
5:00 am 05:00 Mostly Cloudy with Mist and Fog 67 19.4 66 18.9 97 97 Calm 30.09 1019 4 6 0.00 0.00
5:10 am 05:10 Mostly Cloudy with Mist and Fog 67 19.4 66 18.9 97 97 Calm 30.09 1019 2 3 0.00 0.00
5:13 am 05:13 Mostly Cloudy with Mist and Fog 67 19.4 66 18.9 97 97 Calm 30.09 1019 1 1 0.00 0.00
5:40 am 05:40 Mostly Cloudy with Fog 67 19.4 66 18.9 97 97 Calm 30.09 1019 0 0 0.00 0.00
5:53 am 05:53 Mostly Cloudy with Fog 67 19.4 66 18.9 97 97 Calm 30.09 1019 0 0 0.00 0.00
6:03 am 06:03 Mostly Cloudy with Fog 67 19.4 67 19.4 100 100 Calm 30.09 1019 1 1 0.00 0.00
6:18 am 06:18 Cloudy with Mist and Fog 67 19.4 67 19.4 100 100 Calm 30.10 1019 1 2 0.00 0.00
6:33 am 06:33 Mostly Cloudy with Mist and Fog 65 18.3 65 18.3 100 100 Calm 30.11 1019 1 1 0.00 0.00
6:46 am 06:46 Partly Cloudy with Mist and Fog 66 18.9 65 18.3 96 96 Calm 30.10 1019 1 2 0.00 0.00
6:49 am 06:49 Partly Cloudy with Mist and Fog 66 19 64 18 94 94 Calm 30.10 1019 3 5 0.00 0.00
6:53 am 06:53 Partly Cloudy with Mist and Fog 66 18.9 66 18.9 100 100 Calm 30.10 1019 5 8 0.00 0.00
7:53 am 07:53 Sunny 66 18.9 65 18.3 96 96 Calm 30.11 1020 8 13 0.00 0.00
8:53 am 08:53 Sunny 73 22.8 69 20.6 87 87 ENE 3 6 30.11 1020 10 16 0.00 0.00
9:53 am 09:53 Sunny 75 23.9 69 20.6 82 82 NNE 5 7 30.12 1020 10 16 0.00 0.00
10:53 am 10:53 Sunny 81 27.2 70 21.1 69 69 ENE 8 13 30.12 1020 10 16 0.00 0.00
11:53 am 11:53 Sunny 83 28.3 69 20.6 63 63 E 8 13 30.11 1020 10 16 0.00 0.00
12:53 pm 12:53 Sunny 85 29.4 69 20.6 59 59 E 10 17 30.10 1019 10 16 0.00 0.00
1:53 pm 13:53 Mostly Sunny 85 29.4 69 20.6 59 59 E 10 17 30.08 1019 10 16 0.00 0.00
2:53 pm 14:53 Sunny 84 28.9 69 20.6 61 61 ESE 7 11 30.06 1018 10 16 0.00 0.00
3:53 pm 15:53 Mostly Cloudy 82 27.8 71 21.7 69 69 S 8 13 30.06 1018 10 16 0.00 0.00
4:53 pm 16:53 Mostly Cloudy with Nearby Thunderstorms 74 23.3 71 21.7 91 91 SW 10 17 30.05 1018 7 11 0.05 1.27
5:16 pm 17:16 Mostly Cloudy 74 23.3 72 22.2 94 94 SW 7 11 30.04 1017 10 16 0.00 0.00
5:53 pm 17:53 Mostly Cloudy with Light Rain 74 23.3 72 22.2 94 94 SSW 5 7 30.05 1018 10 16 0.00 0.00
6:53 pm 18:53 Sunny 74 23.3 71 21.7 91 91 SSW 3 6 30.06 1018 10 16 0.00 0.00
7:53 pm 19:53 Clear 74 23.3 71 21.7 91 91 Calm 30.05 1018 10 16 0.00 0.00
8:53 pm 20:53 Clear 73 22.8 71 21.7 94 94 Calm 30.06 1018 10 16 0.00 0.00
9:53 pm 21:53 Mostly Clear 73 22.8 71 21.7 94 94 Calm 30.06 1018 10 16 0.00 0.00
10:53 pm 22:53 Mostly Cloudy 73 22.8 71 21.7 94 94 Calm 30.07 1018 10 16 0.00 0.00
11:53 pm 23:53 Clear with Light Rain 72 22.2 71 21.7 97 97 E 3 6 30.06 1018 10 16 0.02 0.51

Powered by AerisWeather